TimeEST,TemperatureF,Dew PointF,Humidity,Sea Level PressureIn,VisibilityMPH,Wind Direction,Wind SpeedMPH,Gust SpeedMPH,PrecipitationIn,Events,Conditions,WindDirDegrees,DateUTC
12:53 AM,33.1,28.9,85,30.14,7.0,West,5.8,-,0.00,,Overcast,280,2013-01-26 05:53:00
1:53 AM,34.0,30.0,85,30.14,8.0,NW,5.8,-,N/A,,Overcast,320,2013-01-26 06:53:00
2:53 AM,33.1,28.9,85,30.13,7.0,North,3.5,-,N/A,,Mostly Cloudy,350,2013-01-26 07:53:00
3:53 AM,33.1,28.9,85,30.13,7.0,North,4.6,-,N/A,,Mostly Cloudy,350,2013-01-26 08:53:00
4:15 AM,33.8,28.4,81,30.13,8.0,NNW,4.6,-,N/A,,Overcast,330,2013-01-26 09:15:00
4:53 AM,33.1,27.0,78,30.13,10.0,NNW,4.6,-,N/A,,Overcast,330,2013-01-26 09:53:00
5:53 AM,34.0,27.0,75,30.15,10.0,NW,4.6,-,N/A,,Overcast,320,2013-01-26 10:53:00
6:53 AM,34.0,27.0,75,30.16,10.0,NNW,6.9,-,N/A,,Overcast,340,2013-01-26 11:53:00
7:28 AM,33.8,26.6,75,30.16,10.0,North,6.9,-,N/A,,Overcast,350,2013-01-26 12:28:00
7:53 AM,34.0,27.0,75,30.16,10.0,North,6.9,-,N/A,,Overcast,350,2013-01-26 12:53:00
8:53 AM,36.0,27.0,70,30.20,10.0,NW,3.5,-,N/A,,Clear,320,2013-01-26 13:53:00
9:53 AM,37.9,28.9,70,30.22,10.0,NW,5.8,-,N/A,,Clear,310,2013-01-26 14:53:00
10:53 AM,42.1,30.9,65,30.23,10.0,NW,6.9,-,N/A,,Clear,320,2013-01-26 15:53:00
11:53 AM,46.9,33.1,59,30.22,10.0,North,9.2,-,N/A,,Clear,350,2013-01-26 16:53:00
12:53 PM,46.9,34.0,61,30.22,10.0,North,8.1,-,N/A,,Clear,350,2013-01-26 17:53:00
1:53 PM,48.0,35.1,61,30.20,10.0,NNW,5.8,-,N/A,,Clear,330,2013-01-26 18:53:00
2:53 PM,48.9,33.1,54,30.20,10.0,NNE,5.8,-,N/A,,Clear,20,2013-01-26 19:53:00
3:53 PM,48.0,32.0,54,30.23,10.0,North,9.2,-,N/A,,Clear,10,2013-01-26 20:53:00
4:53 PM,44.1,33.1,65,30.25,10.0,North,6.9,-,N/A,,Clear,360,2013-01-26 21:53:00
5:53 PM,41.0,30.0,65,30.27,10.0,North,6.9,-,N/A,,Clear,10,2013-01-26 22:53:00
6:53 PM,37.0,30.0,76,30.29,10.0,North,6.9,-,N/A,,Clear,10,2013-01-26 23:53:00
7:53 PM,35.1,30.0,82,30.32,7.0,NNE,8.1,-,N/A,,Clear,20,2013-01-27 00:53:00
8:53 PM,32.0,28.4,87,30.34,5.0,NNE,8.1,-,N/A,,Clear,30,2013-01-27 01:53:00
9:53 PM,30.9,28.0,89,30.36,4.0,NNE,8.1,-,N/A,,Clear,20,2013-01-27 02:53:00
10:53 PM,30.9,28.0,89,30.38,5.0,NNE,6.9,-,N/A,,Clear,30,2013-01-27 03:53:00
11:53 PM,28.9,26.1,89,30.39,5.0,NNE,5.8,-,N/A,,Clear,30,2013-01-27 04:53:00